Tracking 29059 objects as of 19-Jun-2024
HD Live streaming from Space Station
objects crossing your sky now

FORMOSAT 3B

Track FORMOSAT 3B now!
10-day predictions
FORMOSAT 3B is classified as:


NORAD ID: 29048
Int'l Code: 2006-011B
Perigee: 768.4 km
Apogee: 829.3 km
Inclination: 72.0 °
Period: 100.7 minutes
Semi major axis: 7169 km
RCS: 0.6095 m2 (medium)
Launch date: April 15, 2006
Source: Taiwan (Republic of China) (ROC)
Launch site: AIR FORCE WESTERN TEST RANGE (AFWTR)
Your satellite tracking list
Your tracking list is empty




NASA's NSSDC Master Catalog

Two Line Element Set (TLE):
1 29048U 06011B   24170.61625445  .00000504  00000-0  20916-3 0  9998
2 29048  71.9666 272.9405 0042484  17.7505 342.5104 14.30010277952657
Source of the keplerian elements: AFSPC